CAPE
nan nan nan nan nan nan nan nan nan nan nan nan nan nan nan nan nan nan 1 nan nan nan 0 1 1 0 5 43 64 64 78 86 89 89 89 85 84 84 83 84 84 80 78 78 78 78 80 81 81 84 88 91 91 91 92 94 94 98 107 115 115 126 134 145 145 155 162 170 182 182 190 202 208 208 215 226 227 227 240 251 251 261 280 286 286 294
nan nan nan nan nan nan nan nan nan nan nan nan nan nan nan nan nan nan 0 2 2 0 nan nan nan 0 0 20 62 62 72 83 82 82 79 76 75 75 71 73 73 75 75 72 72 75 76 80 80 83 85 86 87 87 85 89 89 94 102 112 112 125 135 143 143 153 163 172 175 175 183 192 195 195 208 218 222 222 234 239 239 255 276 288 288 304
nan nan nan nan nan nan nan nan nan nan nan nan nan nan nan nan nan nan 0 1 1 1 0 1 1 0 1 14 60 60 67 70 69 69 68 65 64 64 68 68 68 69 67 66 66 66 71 73 73 78 80 84 84 84 85 86 86 92 96 108 108 120 127 140 140 155 166 176 180 180 185 188 193 193 207 223 243 243 244 253 253 260 279 293 293 313
nan nan nan nan nan nan nan nan nan nan nan nan nan nan nan nan nan nan 1 0 0 1 5 4 4 1 1 3 32 32 57 63 63 63 58 57 59 59 62 61 61 61 59 57 57 60 66 72 72 77 82 84 84 84 84 87 87 91 94 102 102 113 119 132 132 146 157 169 175 175 185 187 195 195 212 231 255 255 272 274 274 270 273 296 296 324
nan nan nan nan nan nan nan nan nan nan nan nan nan nan 0 1 2 2 5 5 5 3 5 2 2 0 0 0 17 17 49 54 53 53 52 49 50 50 54 55 55 54 51 54 54 57 66 73 73 80 83 87 86 86 86 88 88 89 89 96 96 104 115 129 129 140 147 161 176 176 180 187 198 198 212 239 264 264 279 276 276 267 256 284 284 304
nan 0 0 nan nan nan nan nan nan nan nan nan nan nan 0 1 6 6 9 5 5 4 2 0 0 nan nan nan 9 9 41 45 43 43 42 40 44 44 44 49 49 47 49 52 52 60 69 75 75 80 86 86 85 85 86 85 85 88 88 92 92 99 110 119 119 130 137 150 158 158 168 178 191 191 204 223 245 245 252 251 251 248 239 248 248 269
2 1 0 nan nan nan nan nan nan nan nan nan 1 1 2 3 6 6 4 5 5 4 1 0 0 nan nan nan 15 15 29 31 29 29 28 30 35 35 40 46 46 47 49 56 56 64 72 77 77 85 85 87 84 84 83 82 82 84 85 90 90 95 103 110 110 118 125 133 133 133 142 151 165 165 179 187 203 203 214 219 219 219 219 233 233 246
0 nan 0 nan nan nan nan 0 nan nan nan 3 10 10 10 6 3 3 0 nan nan nan nan nan nan nan nan nan nan nan nan nan nan nan nan 1 16 16 30 46 46 54 59 66 66 69 76 78 78 78 75 76 80 80 79 72 72 72 73 74 74 80 85 93 93 98 101 106 109 109 114 119 127 127 140 148 159 159 163 179 179 198 221 236 236 259
0 nan nan nan nan 0 0 1 2 2 7 15 11 11 4 0 nan nan nan nan nan nan nan nan nan nan nan nan nan nan nan nan nan nan nan nan nan nan 15 38 38 50 61 65 65 68 70 70 70 69 69 70 72 72 71 68 68 64 66 68 68 76 80 89 89 91 96 102 109 109 114 120 129 129 136 139 144 144 150 163 163 182 207 236 236 256
2 3 1 3 3 6 3 6 14 14 14 15 10 10 0 nan nan nan nan nan nan nan nan nan nan nan nan nan nan nan nan nan 18 18 33 23 44 44 32 27 27 25 50 55 55 59 59 58 58 58 59 59 61 61 61 59 59 58 60 66 66 70 78 83 83 88 96 102 112 112 117 126 132 132 135 137 138 138 141 152 152 162 186 215 215 239
5 7 6 9 9 10 18 20 22 22 9 1 0 0 nan nan nan nan nan nan nan nan nan nan nan nan nan nan nan nan nan nan nan nan 4 17 31 31 36 30 30 33 41 41 41 41 44 45 45 48 49 50 51 51 49 46 46 51 58 64 64 72 73 79 79 86 93 101 104 104 113 121 130 130 132 137 144 144 145 148 148 154 177 200 200 224
13 8 13 22 22 24 24 16 9 9 0 nan nan nan 0 nan nan nan nan nan nan nan nan nan nan nan nan nan nan nan nan nan nan nan nan nan 0 0 2 1 1 6 12 20 20 25 32 36 36 38 36 32 43 43 40 37 37 48 58 65 65 69 73 77 77 81 87 94 105 105 111 120 132 132 138 145 151 151 155 151 151 164 178 195 195 218
15 12 19 28 28 21 12 1 nan nan nan nan nan nan 0 nan nan nan 1 nan nan nan nan nan nan nan nan nan nan nan nan nan nan nan nan nan nan nan nan nan nan nan nan nan nan nan 9 25 25 27 30 27 34 34 38 35 35 46 55 62 62 66 69 74 74 80 85 96 104 104 116 120 127 127 135 141 145 145 148 155 155 161 175 187 187 211
17 25 32 21 21 7 0 nan 0 0 nan nan nan nan nan 0 0 0 0 nan nan nan nan nan nan nan nan nan nan nan nan nan nan nan nan nan nan nan nan nan nan nan nan nan nan nan 2 5 5 0 16 16 19 19 22 33 33 48 54 62 62 65 71 77 77 80 90 99 107 107 116 120 125 125 129 135 138 138 142 141 141 148 159 175 175 194
29 33 21 6 6 2 1 0 nan nan nan nan nan nan 0 0 0 0 nan nan nan nan nan nan nan nan nan nan nan nan nan nan nan nan nan nan nan nan nan nan nan nan nan nan nan nan 0 nan nan nan nan nan 2 2 13 25 25 52 55 60 60 65 70 75 75 79 84 92 101 101 111 115 122 122 129 136 139 139 138 135 135 137 144 155 155 165
35 21 7 5 5 1 1 nan nan nan nan nan 0 0 nan nan nan nan nan nan nan nan nan nan nan nan nan nan nan nan nan nan nan nan nan nan nan nan nan nan nan nan nan nan nan nan nan nan nan nan nan 3 20 20 30 38 38 51 54 61 61 64 66 71 71 70 77 84 92 92 101 108 120 120 122 133 132 132 138 141 141 135 141 144 144 150
18 10 5 3 3 1 0 nan nan nan nan nan nan nan 0 nan nan nan nan 0 0 nan nan nan nan nan 0 nan nan nan nan nan nan nan nan nan nan nan nan nan nan nan nan nan nan nan nan nan nan nan nan 9 26 26 31 39 39 48 50 54 54 56 59 62 62 68 70 76 83 83 88 97 103 103 112 118 124 124 131 133 133 137 139 141 141 146
10 8 6 3 3 1 0 0 nan nan nan nan nan nan 0 1 1 1 nan nan nan nan nan nan nan 0 nan nan nan nan nan nan nan nan nan nan nan nan nan nan nan nan nan nan nan nan nan nan nan nan nan 23 30 30 31 38 38 42 46 49 49 50 52 56 56 60 65 70 76 76 80 84 91 91 99 105 114 114 120 123 123 131 133 134 134 141
9 6 3 2 2 1 0 nan nan nan nan nan nan nan 0 1 3 3 0 0 0 nan nan nan nan 1 0 nan nan nan nan nan nan nan nan nan nan nan nan nan nan nan nan nan nan nan nan nan nan 0 16 27 29 29 32 36 36 39 42 42 42 45 46 49 49 54 58 65 69 69 72 77 82 82 91 97 107 107 115 123 123 127 130 129 129 136
15 7 3 1 1 1 0 nan nan nan nan 0 0 0 1 1 3 3 0 0 0 0 0 0 0 nan nan nan nan nan nan nan nan nan nan nan nan nan nan nan nan nan nan nan nan nan nan nan nan nan 14 23 27 27 28 31 31 35 38 38 38 38 40 44 44 48 51 56 60 60 66 71 76 76 85 88 94 94 105 110 110 117 121 124 124 127
12 6 2 0 0 1 0 nan nan nan 2 5 3 3 3 3 2 2 nan nan nan 2 1 nan nan nan nan nan nan nan nan nan nan nan nan nan nan nan nan nan nan nan nan nan nan nan nan nan nan nan 2 16 21 21 25 27 27 32 33 34 34 35 37 39 39 42 47 50 52 52 55 62 66 66 72 75 83 83 94 98 98 104 111 114 114 115
5 4 1 0 0 nan 2 nan 2 2 4 6 4 4 3 nan nan nan 0 2 2 nan nan nan nan nan nan nan nan nan nan nan nan nan nan nan nan nan nan nan nan nan nan nan nan nan nan nan nan nan 2 16 21 21 23 25 25 29 29 31 31 33 34 36 36 35 37 39 42 42 46 52 57 57 61 67 72 72 79 89 89 95 102 106 106 111
3 1 0 0 0 0 1 0 2 2 4 4 5 5 nan nan 0 0 3 nan nan nan nan nan nan nan nan nan nan nan nan nan nan nan nan nan nan nan nan nan nan nan nan nan nan nan nan nan nan nan 1 18 17 17 20 22 22 24 28 28 28 28 29 30 30 29 31 35 37 37 39 44 49 49 55 59 64 64 68 76 76 85 90 97 97 104
2 1 0 0 0 1 1 1 0 0 nan 1 1 1 2 3 1 1 nan nan nan nan nan nan nan nan 0 0 nan nan nan nan nan nan nan nan nan nan nan nan nan nan nan nan nan nan nan nan nan nan nan 10 14 14 17 18 18 23 25 26 26 26 24 26 26 27 27 31 32 32 34 39 42 42 47 48 51 51 56 61 61 72 76 86 86 88
2 2 2 2 2 6 5 1 9 9 13 13 17 17 11 4 2 2 nan nan nan 0 1 nan nan 0 nan 2 nan nan nan nan nan nan nan nan nan nan nan nan nan nan nan nan nan nan nan nan nan nan nan nan 8 8 13 17 17 22 24 25 25 22 24 23 23 25 25 26 26 26 28 30 33 33 38 40 44 44 46 52 52 58 64 69 69 77
15 13 10 20 20 49 70 95 122 122 110 57 25 25 3 3 0 0 1 2 2 1 1 0 0 nan nan 0 nan nan nan nan nan nan nan nan nan nan nan nan nan nan nan nan nan nan nan nan nan nan nan nan 5 5 9 16 16 20 20 21 21 20 19 20 20 18 18 19 21 21 23 26 29 29 30 36 38 38 41 45 45 51 54 59 59 68
41 46 59 73 73 92 118 137 150 150 135 78 14 14 4 2 2 2 2 1 1 2 0 0 0 0 0 nan nan nan nan nan nan nan nan nan nan nan nan nan nan nan nan nan nan nan nan nan nan nan nan nan nan nan 8 14 14 18 17 16 16 16 15 15 15 15 17 17 20 20 23 25 27 27 29 31 34 34 37 44 44 48 53 51 51 56
42 49 60 79 79 100 111 100 80 80 64 58 70 70 35 4 2 2 3 2 2 1 0 0 0 0 nan nan nan nan nan nan nan nan nan nan nan nan nan nan nan nan nan nan nan nan 5 nan nan nan nan nan nan nan 2 11 11 11 11 10 10 11 12 14 14 15 16 17 20 20 21 25 25 25 27 29 33 33 37 42 42 48 51 42 42 17
41 54 72 88 88 79 58 41 36 36 40 46 54 54 33 3 3 3 3 3 3 1 1 2 2 1 nan nan nan nan nan nan nan nan nan nan nan nan nan nan nan nan nan nan nan nan nan nan nan nan nan nan nan nan nan 5 5 5 7 9 9 10 10 11 11 12 14 16 18 18 22 24 24 24 26 28 32 32 39 42 42 47 42 27 27 5
29 54 58 45 45 28 18 8 18 18 31 38 42 42 30 6 5 5 5 4 4 1 1 2 2 1 nan nan nan nan nan nan nan nan nan nan nan nan nan nan nan nan nan nan nan nan nan nan nan nan nan nan nan nan nan nan nan nan nan 5 5 4 5 7 7 11 13 15 17 17 21 22 23 23 24 26 30 30 34 39 39 35 17 5 5 2
14 10 1 1 1 2 0 nan 6 6 22 32 32 32 23 5 2 2 2 2 2 0 nan nan nan 0 nan nan nan nan nan nan nan nan nan nan nan nan nan nan nan nan nan nan nan nan nan nan nan nan nan nan nan nan nan nan nan nan nan nan nan nan 2 4 4 8 12 14 17 17 17 19 19 19 19 23 25 25 29 37 37 33 6 1 1 0
1 nan nan nan nan nan nan nan nan nan nan 1 3 3 7 6 3 3 0 0 0 nan nan nan nan nan nan nan nan nan nan nan nan nan nan nan nan nan nan nan nan nan nan nan nan nan nan nan nan nan nan nan nan nan nan nan nan nan nan nan nan nan nan 1 1 2 1 6 8 8 8 10 11 11 13 15 17 17 22 31 31 34 13 0 0 nan
1 0 0 1 1 1 0 nan nan nan 0 1 1 1 1 2 5 5 1 nan nan nan nan nan nan nan nan nan nan nan nan nan 0 0 3 nan nan nan nan nan nan nan nan nan nan nan nan nan nan nan nan nan nan nan nan nan nan nan nan nan nan nan nan nan nan nan nan nan 1 1 6 7 10 10 11 12 16 16 23 31 31 39 36 0 0 nan
1 2 2 1 1 0 nan nan nan nan 0 0 1 1 1 0 0 0 1 0 0 nan nan nan nan nan nan nan nan nan nan nan 0 0 2 nan nan nan nan nan nan nan nan nan nan nan nan nan nan nan nan nan nan nan nan nan nan nan nan nan nan nan nan nan nan nan nan nan nan nan nan nan 4 4 5 9 13 13 21 33 33 41 51 23 23 5
1 2 2 0 0 0 1 0 nan nan nan nan nan nan 0 nan nan nan nan nan nan nan nan nan nan nan nan nan nan nan nan nan nan nan 2 nan nan nan nan nan nan nan nan nan nan nan nan nan nan nan nan nan nan nan nan nan nan nan nan nan nan nan nan nan nan nan nan nan nan nan nan nan nan nan nan 4 13 13 24 31 31 40 48 59 59 40
1 1 0 0 0 1 1 1 1 1 0 nan nan nan nan nan nan nan nan nan nan nan nan nan nan nan nan nan nan nan nan nan nan nan 2 nan nan nan nan nan nan nan nan nan nan nan nan nan nan nan 0 nan nan nan nan nan nan nan nan nan nan nan nan nan nan nan nan nan nan nan nan nan nan nan nan 8 20 20 26 30 30 36 44 54 54 57
2 2 0 1 1 nan 0 nan 0 0 nan nan nan nan nan nan nan nan nan nan nan nan nan 0 0 nan 1 nan nan nan nan nan nan nan nan nan nan nan nan nan nan nan nan nan nan nan nan nan nan nan nan nan nan nan nan nan nan nan nan nan nan nan nan nan nan nan nan nan nan nan nan nan nan nan nan 12 15 15 20 28 28 29 39 45 45 52
3 1 1 1 1 nan nan nan 0 0 nan nan nan nan nan nan nan nan nan nan nan nan nan nan nan nan 3 6 nan nan nan nan nan nan nan nan nan nan nan nan nan nan nan nan nan nan nan nan nan nan nan nan nan nan nan nan nan nan nan nan nan nan nan nan nan nan nan nan nan nan nan nan nan nan nan nan nan nan nan nan nan 11 25 29 29 42
1 0 1 1 1 0 nan nan nan nan nan nan nan nan nan nan nan nan nan nan nan nan nan nan nan nan nan nan 0 0 1 nan nan nan nan nan nan nan nan nan nan nan nan nan nan nan nan nan nan nan nan nan nan nan nan nan nan nan nan nan nan nan nan nan nan nan nan nan nan nan nan nan nan nan nan nan nan nan nan nan nan 0 1 0 0 16
1 1 1 4 4 0 nan nan nan nan nan nan nan nan nan nan nan nan nan nan nan nan nan nan nan nan nan 1 2 2 2 nan nan nan nan nan nan nan nan nan nan nan nan nan nan nan nan nan nan nan nan nan nan nan nan nan nan nan nan nan nan nan nan nan nan nan nan nan nan nan nan nan nan nan nan nan nan nan nan nan nan nan 2 nan nan nan
4 2 2 2 2 2 1 0 nan nan nan nan nan nan nan nan nan nan nan nan nan nan nan nan nan nan nan nan nan nan nan nan nan nan nan nan nan nan nan nan nan nan nan nan nan nan nan nan nan nan nan nan nan nan nan nan nan 0 6 nan nan nan nan nan nan nan nan nan nan nan nan 0 1 1 nan nan nan nan nan nan nan nan 1 nan nan nan
6 3 1 0 0 0 nan nan nan nan nan nan nan nan nan nan nan nan nan nan nan nan nan nan nan nan nan nan nan nan nan nan nan nan nan nan nan nan nan nan nan nan nan nan nan nan nan nan nan nan nan nan nan nan nan nan nan nan 1 nan nan nan nan nan nan nan nan nan nan nan 2 nan nan nan nan nan nan nan 0 nan nan 6 12 1 1 nan
2 1 nan nan nan nan 0 1 0 0 nan nan nan nan nan nan nan nan nan nan nan nan nan nan nan nan nan nan nan nan nan nan nan nan nan nan nan nan nan nan nan nan nan nan nan nan nan nan nan nan nan nan nan nan nan nan nan nan nan 0 0 nan nan nan nan nan nan nan nan nan nan nan nan nan 0 0 1 1 2 7 7 21 18 3 3 nan
1 0 0 nan nan nan 0 0 nan nan nan nan 0 0 nan nan nan nan nan nan nan 0 nan nan nan nan nan nan nan nan nan nan nan nan nan nan nan nan nan nan nan nan nan nan nan nan nan nan nan nan nan nan nan nan nan nan nan nan nan nan nan nan nan nan nan nan nan nan nan nan nan nan nan nan nan 0 nan nan 0 0 0 nan 2 1 1 0
nan nan nan nan nan nan nan nan nan nan 0 0 nan nan nan nan 0 0 nan nan nan nan nan nan nan nan nan nan nan nan nan nan nan nan nan nan 6 6 1 nan nan nan nan nan nan nan nan nan nan nan nan nan nan nan nan nan nan nan nan nan nan nan nan nan nan nan nan nan nan nan nan nan nan nan nan nan nan nan nan nan nan nan nan nan nan 0
nan nan nan nan nan nan nan nan nan nan nan nan nan nan nan nan nan nan nan nan nan nan nan nan nan nan nan nan nan nan nan nan nan nan nan nan nan nan nan nan nan nan nan nan nan nan nan nan nan nan nan nan nan nan nan nan nan nan nan nan nan nan nan nan nan nan nan nan nan nan nan nan nan nan nan nan nan nan nan nan nan nan nan nan nan 0
nan nan nan nan nan nan nan nan nan nan nan nan nan nan nan nan nan nan nan nan nan nan nan nan nan nan nan nan nan nan nan nan nan nan nan nan nan nan nan nan nan nan nan nan nan nan nan nan nan nan nan nan nan nan nan nan nan nan nan nan nan nan nan nan nan nan nan nan nan nan nan nan nan nan nan nan nan nan nan nan nan nan nan nan nan nan
0 nan nan nan nan nan nan nan nan nan nan nan nan nan nan nan nan nan nan nan nan nan 1 nan nan nan nan nan nan nan nan nan nan nan nan nan nan nan nan nan nan nan nan nan nan nan nan nan nan nan nan nan nan nan nan nan nan nan nan nan nan nan nan nan nan nan nan nan nan nan nan nan nan nan nan nan nan nan nan nan nan nan nan nan nan nan
nan nan nan nan nan nan nan nan nan nan nan nan nan nan nan 0 8 8 nan nan nan nan nan nan nan nan nan nan nan nan nan nan nan nan nan nan nan nan nan nan nan nan nan nan nan nan nan nan nan nan nan nan nan nan nan nan nan nan nan nan nan 0 1 1 1 0 nan nan nan nan nan nan nan nan nan nan nan nan nan nan nan nan nan nan nan nan
nan nan nan nan nan nan nan nan nan nan nan nan nan nan nan nan nan nan nan nan nan nan nan nan nan nan nan nan nan nan nan nan nan nan nan nan nan nan nan nan nan nan nan nan nan nan nan nan nan nan 1 nan nan nan nan nan nan nan nan nan nan nan nan nan nan nan nan nan nan nan nan nan nan nan nan nan nan nan nan nan nan nan nan nan nan nan
nan nan nan nan nan nan nan nan nan nan nan nan nan nan nan nan nan nan nan nan nan nan nan nan nan nan nan nan nan nan nan nan nan nan nan nan nan nan nan nan nan nan nan nan nan nan nan nan nan nan 0 8 1 1 nan nan nan nan nan nan nan nan nan nan nan nan nan nan nan nan nan nan nan nan nan nan nan nan nan nan nan nan nan nan nan nan
CIN
nan nan nan nan nan nan nan nan nan nan nan nan nan nan nan nan nan nan -11 nan nan nan -12 -11 -11 -12 -6 0 0 0 0 0 0 0 0 0 0 0 0 0 0 0 0 0 0 0 0 0 0 0 0 0 0 0 0 0 0 0 0 0 0 0 0 0 0 0 0 0 0 0 0 0 0 0 0 0 0 0 0 0 0 0 0 0 0 0
nan nan nan nan nan nan nan nan nan nan nan nan nan nan nan nan nan nan -6 -2 -2 -7 nan nan nan -8 -17 0 0 0 0 0 0 0 0 0 0 0 0 0 0 0 0 0 0 0 0 0 0 0 0 0 0 0 0 0 0 0 0 0 0 0 0 0 0 0 0 0 0 0 0 0 0 0 0 0 0 0 0 0 0 0 0 0 0 0
nan nan nan nan nan nan nan nan nan nan nan nan nan nan nan nan nan nan -6 -0 -0 -1 -1 -4 -4 -8 -14 -6 0 0 0 0 0 0 0 0 0 0 0 0 0 0 0 0 0 0 0 0 0 0 0 0 0 0 0 0 0 0 0 0 0 0 0 0 0 0 0 0 0 0 0 0 0 0 0 0 0 0 0 0 0 0 0 0 0 0
nan nan nan nan nan nan nan nan nan nan nan nan nan nan nan nan nan nan -4 -4 -4 -2 -0 -0 -0 -3 -23 -11 0 0 0 0 0 0 0 0 0 0 0 0 0 0 0 0 0 0 0 0 0 0 0 0 0 0 0 0 0 0 0 0 0 0 0 0 0 0 0 0 0 0 0 0 0 0 0 0 0 0 0 0 0 0 0 0 0 0
nan nan nan nan nan nan nan nan nan nan nan nan nan nan -7 -6 -7 -7 -4 -6 -6 -0 -1 -1 -1 -0 -23 -36 -6 -6 0 0 0 0 0 0 0 0 0 0 0 0 0 0 0 0 0 0 0 0 0 0 0 0 0 0 0 0 0 0 0 0 0 0 0 0 0 0 0 0 0 0 0 0 0 0 0 0 0 0 0 0 0 0 0 0
nan -0 -0 nan nan nan nan nan nan nan nan nan nan nan -0 -7 -8 -8 -9 -15 -15 -11 -8 -8 -8 nan nan nan 0 0 0 0 0 0 0 0 0 0 0 0 0 0 0 0 0 0 0 0 0 0 0 0 0 0 0 0 0 0 0 0 0 0 0 0 0 0 0 0 0 0 0 0 0 0 0 0 0 0 0 0 0 0 0 0 0 0
0 -0 -4 nan nan nan nan nan nan nan nan nan -6 -6 -8 -9 -5 -5 -9 -17 -17 -14 -20 -17 -17 nan nan nan 0 0 0 0 0 0 0 0 0 0 0 0 0 0 0 0 0 0 0 0 0 0 0 0 0 0 0 0 0 0 0 0 0 0 0 0 0 0 0 0 0 0 0 0 0 0 0 0 0 0 0 0 0 0 0 0 0 0
-0 nan -0 nan nan nan nan -13 nan nan nan -3 -1 -1 -3 -9 -28 -28 -62 nan nan nan nan nan nan nan nan nan nan nan nan nan nan nan nan 0 0 0 0 0 0 0 0 0 0 0 0 0 0 0 0 0 0 0 0 0 0 0 0 0 0 0 0 0 0 0 0 0 0 0 0 0 0 0 0 0 0 0 0 0 0 0 0 0 0 0
-9 nan nan nan nan -0 -0 -0 -0 -0 -7 -1 -1 -1 -3 -6 nan nan nan nan nan nan nan nan nan nan nan nan nan nan nan nan nan nan nan nan nan nan 0 0 0 0 0 0 0 0 0 0 0 0 0 0 0 0 0 0 0 0 0 0 0 0 0 0 0 0 0 0 0 0 0 0 0 0 0 0 0 0 0 0 0 0 0 0 0 0
-14 -7 -6 -8 -8 -14 -11 -2 -1 -1 -8 -9 -17 -17 -31 nan nan nan nan nan nan nan nan nan nan nan nan nan nan nan nan nan 0 0 0 0 0 0 0 0 0 0 0 0 0 0 0 0 0 0 0 0 0 0 0 0 0 0 0 0 0 0 0 0 0 0 0 0 0 0 0 0 0 0 0 0 0 0 0 0 0 0 0 0 0 0
-0 -2 -4 -2 -2 -13 -16 -5 -2 -2 -15 -23 -25 -25 nan nan nan nan nan nan nan nan nan nan nan nan nan nan nan nan nan nan nan nan -0 0 0 0 0 0 0 0 0 0 0 0 0 0 0 0 0 0 0 0 0 0 0 0 0 0 0 0 0 0 0 0 0 0 0 0 0 0 0 0 0 0 0 0 0 0 0 0 0 0 0 0
-0 -0 -4 -3 -3 -4 -3 -8 -5 -5 -25 nan nan nan -8 nan nan nan nan nan nan nan nan nan nan nan nan nan nan nan nan nan nan nan nan nan -18 -18 -2 -3 -3 0 0 0 0 0 0 0 0 0 0 0 0 0 0 0 0 0 0 0 0 0 0 0 0 0 0 0 0 0 0 0 0 0 0 0 0 0 0 0 0 0 0 0 0 0
-6 -10 -6 -3 -3 -3 -2 -9 nan nan nan nan nan nan -8 nan nan nan -26 nan nan nan nan nan nan nan nan nan nan nan nan nan nan nan nan nan nan nan nan nan nan nan nan nan nan nan 0 0 0 0 0 0 0 0 0 0 0 0 0 0 0 0 0 0 0 0 0 0 0 0 0 0 0 0 0 0 0 0 0 0 0 0 0 0 0 0
-7 -7 -4 -5 -5 -8 -9 nan -11 -11 nan nan nan nan nan -14 -18 -18 -18 nan nan nan nan nan nan nan nan nan nan nan nan nan nan nan nan nan nan nan nan nan nan nan nan nan nan nan -0 0 0 -1 0 0 0 0 0 0 0 0 0 0 0 0 0 0 0 0 0 0 0 0 0 0 0 0 0 0 0 0 0 0 0 0 0 0 0 0
-5 -4 -4 -10 -10 -16 -11 -9 nan nan nan nan nan nan -21 -20 -18 -18 nan nan nan nan nan nan nan nan nan nan nan nan nan nan nan nan nan nan nan nan nan nan nan nan nan nan nan nan -6 nan nan nan nan nan -0 -0 0 0 0 0 0 0 0 0 0 0 0 0 0 0 0 0 0 0 0 0 0 0 0 0 0 0 0 0 0 0 0 0
-5 -6 -9 -12 -12 -15 -6 nan nan nan nan nan -19 -19 nan nan nan nan nan nan nan nan nan nan nan nan nan nan nan nan nan nan nan nan nan nan nan nan nan nan nan nan nan nan nan nan nan nan nan nan nan 0 0 0 0 0 0 0 0 0 0 0 0 0 0 0 0 0 0 0 0 0 0 0 0 0 0 0 0 0 0 0 0 0 0 0
-10 -9 -12 -11 -11 -9 -3 nan nan nan nan nan nan nan -12 nan nan nan nan -17 -17 nan nan nan nan nan -12 nan nan nan nan nan nan nan nan nan nan nan nan nan nan nan nan nan nan nan nan nan nan nan nan 0 0 0 0 0 0 0 0 0 0 0 0 0 0 0 0 0 0 0 0 0 0 0 0 0 0 0 0 0 0 0 0 0 0 0
-11 -10 -11 -8 -8 -5 -0 -3 nan nan nan nan nan nan -6 -11 -13 -13 nan nan nan nan nan nan nan -10 nan nan nan nan nan nan nan nan nan nan nan nan nan nan nan nan nan nan nan nan nan nan nan nan nan 0 0 0 0 0 0 0 0 0 0 0 0 0 0 0 0 0 0 0 0 0 0 0 0 0 0 0 0 0 0 0 0 0 0 0
-9 -11 -10 -6 -6 -4 -3 nan nan nan nan nan nan nan -11 -9 -10 -10 -14 -16 -16 nan nan nan nan -9 -10 nan nan nan nan nan nan nan nan nan nan nan nan nan nan nan nan nan nan nan nan nan nan -17 0 0 0 0 0 0 0 0 0 0 0 0 0 0 0 0 0 0 0 0 0 0 0 0 0 0 0 0 0 0 0 0 0 0 0 0
-4 -9 -9 -8 -8 -4 -5 nan nan nan nan -2 -10 -10 -11 -10 -7 -7 -11 -12 -12 -13 -10 -12 -12 nan nan nan nan nan nan nan nan nan nan nan nan nan nan nan nan nan nan nan nan nan nan nan nan nan 0 0 0 0 0 0 0 0 0 0 0 0 0 0 0 0 0 0 0 0 0 0 0 0 0 0 0 0 0 0 0 0 0 0 0 0
-5 -7 -9 -15 -15 -10 -7 nan nan nan -8 -17 -13 -13 -10 -8 -8 -8 nan nan nan -8 -11 nan nan nan nan nan nan nan nan nan nan nan nan nan nan nan nan nan nan nan nan nan nan nan nan nan nan nan -2 0 0 0 0 0 0 0 0 0 0 0 0 0 0 0 0 0 0 0 0 0 0 0 0 0 0 0 0 0 0 0 0 0 0 0
-9 -6 -8 -19 -19 nan -3 nan -2 -2 -17 -30 -13 -13 -7 nan nan nan -5 -7 -7 nan nan nan nan nan nan nan nan nan nan nan nan nan nan nan nan nan nan nan nan nan nan nan nan nan nan nan nan nan -1 0 0 0 0 0 0 0 0 0 0 0 0 0 0 0 0 0 0 0 0 0 0 0 0 0 0 0 0 0 0 0 0 0 0 0
-13 -12 -10 -11 -11 -14 -13 -19 -15 -15 -15 -19 -7 -7 nan nan -12 -12 -8 nan nan nan nan nan nan nan nan nan nan nan nan nan nan nan nan nan nan nan nan nan nan nan nan nan nan nan nan nan nan nan -0 0 0 0 0 0 0 0 0 0 0 0 0 0 0 0 0 0 0 0 0 0 0 0 0 0 0 0 0 0 0 0 0 0 0 0
-14 -11 -6 -14 -14 -27 -26 -15 -17 -17 nan -10 -11 -11 -18 -21 -22 -22 nan nan nan nan nan nan nan nan -14 -10 nan nan nan nan nan nan nan nan nan nan nan nan nan nan nan nan nan nan nan nan nan nan nan 0 0 0 0 0 0 0 0 0 0 0 0 0 0 0 0 0 0 0 0 0 0 0 0 0 0 0 0 0 0 0 0 0 0 0
-11 -7 -14 -21 -21 -23 -18 -13 -9 -9 -11 -8 -7 -7 -12 -7 -3 -3 nan nan nan -12 -10 nan nan -7 nan -0 nan nan nan nan nan nan nan nan nan nan nan nan nan nan nan nan nan nan nan nan nan nan nan nan 0 0 0 0 0 0 0 0 0 0 0 0 0 0 0 0 0 0 0 0 0 0 0 0 0 0 0 0 0 0 0 0 0 0
0 -4 -8 -2 -2 0 0 0 0 0 0 -2 -7 -7 -13 -6 -7 -7 -9 -8 -8 -7 -7 -7 -7 nan nan -5 nan nan nan nan nan nan nan nan nan nan nan nan nan nan nan nan nan nan nan nan nan nan nan nan 0 0 0 0 0 0 0 0 0 0 0 0 0 0 0 0 0 0 0 0 0 0 0 0 0 0 0 0 0 0 0 0 0 0
0 0 0 0 0 0 0 0 0 0 0 0 -2 -2 -10 -11 -8 -8 -4 -5 -5 -4 -5 -5 -5 -4 -3 nan nan nan nan nan nan nan nan nan nan nan nan nan nan nan nan nan nan nan nan nan nan nan nan nan nan nan 0 0 0 0 0 0 0 0 0 0 0 0 0 0 0 0 0 0 0 0 0 0 0 0 0 0 0 0 0 0 0 0
0 0 0 0 0 0 0 0 0 0 0 0 0 0 0 -9 -3 -3 -2 -4 -4 -4 -5 -3 -3 -3 nan nan nan nan nan nan nan nan nan nan nan nan nan nan nan nan nan nan nan nan -0 nan nan nan nan nan nan nan 0 0 0 0 0 0 0 0 0 0 0 0 0 0 0 0 0 0 0 0 0 0 0 0 0 0 0 0 0 0 0 -6
0 0 0 0 0 0 0 0 0 0 0 0 0 0 0 -10 -3 -3 -2 -3 -3 -4 -3 -1 -1 -2 nan nan nan nan nan nan nan nan nan nan nan nan nan nan nan nan nan nan nan nan nan nan nan nan nan nan nan nan nan 0 0 0 0 0 0 0 0 0 0 0 0 0 0 0 0 0 0 0 0 0 0 0 0 0 0 0 0 -5 -5 -8
0 0 0 0 0 0 0 0 0 0 0 0 0 0 0 -10 -5 -5 -4 -5 -5 -4 -1 -0 -0 -1 nan nan nan nan nan nan nan nan nan nan nan nan nan nan nan nan nan nan nan nan nan nan nan nan nan nan nan nan nan nan nan nan nan 0 0 0 0 0 0 0 0 0 0 0 0 0 0 0 0 0 0 0 0 0 0 0 -11 -14 -14 -9
-1 -0 -1 0 0 0 -3 nan 0 0 0 0 0 0 0 -8 -10 -10 -9 -8 -8 -6 nan nan nan -3 nan nan nan nan nan nan nan nan nan nan nan nan nan nan nan nan nan nan nan nan nan nan nan nan nan nan nan nan nan nan nan nan nan nan nan nan 0 0 0 0 0 0 0 0 0 0 0 0 0 0 0 0 0 0 0 0 -15 -13 -13 -8
-1 nan nan nan nan nan nan nan nan nan nan -9 -5 -5 0 0 -4 -4 -10 -10 -10 nan nan nan nan nan nan nan nan nan nan nan nan nan nan nan nan nan nan nan nan nan nan nan nan nan nan nan nan nan nan nan nan nan nan nan nan nan nan nan nan nan nan -0 -0 0 0 0 0 0 0 0 0 0 0 0 0 0 0 0 0 0 -8 -9 -9 nan
-0 -1 -3 -3 -3 -2 -4 nan nan nan -10 -6 -7 -7 -8 -5 0 0 -6 nan nan nan nan nan nan nan nan nan nan nan nan nan -0 -0 0 nan nan nan nan nan nan nan nan nan nan nan nan nan nan nan nan nan nan nan nan nan nan nan nan nan nan nan nan nan nan nan nan nan -0 -0 0 0 0 0 0 0 0 0 0 0 0 0 0 -11 -11 nan
-2 -0 -1 -4 -4 -7 nan nan nan nan -9 -5 -0 -0 -5 -7 -9 -9 -5 -11 -11 nan nan nan nan nan nan nan nan nan nan nan 0 0 -0 nan nan nan nan nan nan nan nan nan nan nan nan nan nan nan nan nan nan nan nan nan nan nan nan nan nan nan nan nan nan nan nan nan nan nan nan nan 0 0 0 0 0 0 0 0 0 0 0 -3 -3 -5
-3 -1 -2 -5 -5 -4 -2 -6 nan nan nan nan nan nan -10 nan nan nan nan nan nan nan nan nan nan nan nan nan nan nan nan nan nan nan 0 nan nan nan nan nan nan nan nan nan nan nan nan nan nan nan nan nan nan nan nan nan nan nan nan nan nan nan nan nan nan nan nan nan nan nan nan nan nan nan nan 0 0 0 0 0 0 0 0 0 0 0
-4 -4 -2 -4 -4 -0 -0 -0 -0 -0 -0 nan nan nan nan nan nan nan nan nan nan nan nan nan nan nan nan nan nan nan nan nan nan nan 0 nan nan nan nan nan nan nan nan nan nan nan nan nan nan nan -0 nan nan nan nan nan nan nan nan nan nan nan nan nan nan nan nan nan nan nan nan nan nan nan nan 0 0 0 0 0 0 0 0 0 0 0
-3 -2 -4 -4 -4 nan -0 nan -1 -1 nan nan nan nan nan nan nan nan nan nan nan nan nan -5 -5 nan -5 nan nan nan nan nan nan nan nan nan nan nan nan nan nan nan nan nan nan nan nan nan nan nan nan nan nan nan nan nan nan nan nan nan nan nan nan nan nan nan nan nan nan nan nan nan nan nan nan 0 0 0 0 0 0 0 0 0 0 0
-1 -2 -3 -4 -4 nan nan nan -2 -2 nan nan nan nan nan nan nan nan nan nan nan nan nan nan nan nan -7 -5 nan nan nan nan nan nan nan nan nan nan nan nan nan nan nan nan nan nan nan nan nan nan nan nan nan nan nan nan nan nan nan nan nan nan nan nan nan nan nan nan nan nan nan nan nan nan nan nan nan nan nan nan nan -0 0 0 0 0
-4 -4 -3 -1 -1 -3 nan nan nan nan nan nan nan nan nan nan nan nan nan nan nan nan nan nan nan nan nan nan -15 -15 -11 nan nan nan nan nan nan nan nan nan nan nan nan nan nan nan nan nan nan nan nan nan nan nan nan nan nan nan nan nan nan nan nan nan nan nan nan nan nan nan nan nan nan nan nan nan nan nan nan nan nan -10 -9 -11 -11 -0
-3 -4 -3 0 0 -3 nan nan nan nan nan nan nan nan nan nan nan nan nan nan nan nan nan nan nan nan nan -11 -10 -10 -15 nan nan nan nan nan nan nan nan nan nan nan nan nan nan nan nan nan nan nan nan nan nan nan nan nan nan nan nan nan nan nan nan nan nan nan nan nan nan nan nan nan nan nan nan nan nan nan nan nan nan nan -7 nan nan nan
0 -0 -1 -0 -0 -0 -0 -2 nan nan nan nan nan nan nan nan nan nan nan nan nan nan nan nan nan nan nan nan nan nan nan nan nan nan nan nan nan nan nan nan nan nan nan nan nan nan nan nan nan nan nan nan nan nan nan nan nan -3 0 nan nan nan nan nan nan nan nan nan nan nan nan -10 -10 -10 nan nan nan nan nan nan nan nan -7 nan nan nan
0 0 -0 -0 -0 -0 nan nan nan nan nan nan nan nan nan nan nan nan nan nan nan nan nan nan nan nan nan nan nan nan nan nan nan nan nan nan nan nan nan nan nan nan nan nan nan nan nan nan nan nan nan nan nan nan nan nan nan nan -3 nan nan nan nan nan nan nan nan nan nan nan -5 nan nan nan nan nan nan nan -15 nan nan -2 -2 -4 -4 nan
0 -0 nan nan nan nan -0 -0 -2 -2 nan nan nan nan nan nan nan nan nan nan nan nan nan nan nan nan nan nan nan nan nan nan nan nan nan nan nan nan nan nan nan nan nan nan nan nan nan nan nan nan nan nan nan nan nan nan nan nan nan -5 -5 nan nan nan nan nan nan nan nan nan nan nan nan nan -14 -14 -13 -13 -11 -6 -6 -1 -1 -4 -4 nan
0 -0 -0 nan nan nan -0 -2 nan nan nan nan -9 -9 nan nan nan nan nan nan nan -4 nan nan nan nan nan nan nan nan nan nan nan nan nan nan nan nan nan nan nan nan nan nan nan nan nan nan nan nan nan nan nan nan nan nan nan nan nan nan nan nan nan nan nan nan nan nan nan nan nan nan nan nan nan -13 nan nan -15 -15 -15 nan -8 -11 -11 -8
nan nan nan nan nan nan nan nan nan nan -5 -4 nan nan nan nan -5 -5 nan nan nan nan nan nan nan nan nan nan nan nan nan nan nan nan nan nan -11 -11 -26 nan nan nan nan nan nan nan nan nan nan nan nan nan nan nan nan nan nan nan nan nan nan nan nan nan nan nan nan nan nan nan nan nan nan nan nan nan nan nan nan nan nan nan nan nan nan -16
nan nan nan nan nan nan nan nan nan nan nan nan nan nan nan nan nan nan nan nan nan nan nan nan nan nan nan nan nan nan nan nan nan nan nan nan nan nan nan nan nan nan nan nan nan nan nan nan nan nan nan nan nan nan nan nan nan nan nan nan nan nan nan nan nan nan nan nan nan nan nan nan nan nan nan nan nan nan nan nan nan nan nan nan nan -23
nan nan nan nan nan nan nan nan nan nan nan nan nan nan nan nan nan nan nan nan nan nan nan nan nan nan nan nan nan nan nan nan nan nan nan nan nan nan nan nan nan nan nan nan nan nan nan nan nan nan nan nan nan nan nan nan nan nan nan nan nan nan nan nan nan nan nan nan nan nan nan nan nan nan nan nan nan nan nan nan nan nan nan nan nan nan
-3 nan nan nan nan nan nan nan nan nan nan nan nan nan nan nan nan nan nan nan nan nan -2 nan nan nan nan nan nan nan nan nan nan nan nan nan nan nan nan nan nan nan nan nan nan nan nan nan nan nan nan nan nan nan nan nan nan nan nan nan nan nan nan nan nan nan nan nan nan nan nan nan nan nan nan nan nan nan nan nan nan nan nan nan nan nan
nan nan nan nan nan nan nan nan nan nan nan nan nan nan nan -2 0 0 nan nan nan nan nan nan nan nan nan nan nan nan nan nan nan nan nan nan nan nan nan nan nan nan nan nan nan nan nan nan nan nan nan nan nan nan nan nan nan nan nan nan nan -12 -11 -14 -14 -21 nan nan nan nan nan nan nan nan nan nan nan nan nan nan nan nan nan nan nan nan
nan nan nan nan nan nan nan nan nan nan nan nan nan nan nan nan nan nan nan nan nan nan nan nan nan nan nan nan nan nan nan nan nan nan nan nan nan nan nan nan nan nan nan nan nan nan nan nan nan nan -19 nan nan nan nan nan nan nan nan nan nan nan nan nan nan nan nan nan nan nan nan nan nan nan nan nan nan nan nan nan nan nan nan nan nan nan
nan nan nan nan nan nan nan nan nan nan nan nan nan nan nan nan nan nan nan nan nan nan nan nan nan nan nan nan nan nan nan nan nan nan nan nan nan nan nan nan nan nan nan nan nan nan nan nan nan nan -18 -5 -20 -20 nan nan nan nan nan nan nan nan nan nan nan nan nan nan nan nan nan nan nan nan nan nan nan nan nan nan nan nan nan nan nan nan
Wind_Speed
7 7 7 9 10 10 9 11 12 12 11 10 10 10 10 11 11 12 14 14 14 13 12 12 13 14 16 19 22 24 26 27 27 28 28 28 28 28 28 28 28 28 29 29 29 29 30 30 30 30 30 30 30 31 31 31 31 31 31 31 32 32 32 32 32 32 32 32 32 32 31 31 31 31 31 31 31 31 31 31 31 31 31 31 31 31
7 7 7 9 11 10 9 11 11 12 12 12 11 11 11 12 12 11 11 12 13 12 12 12 13 14 16 17 21 24 25 26 27 27 27 27 27 28 28 28 28 29 29 29 30 30 30 30 30 30 30 31 31 31 31 31 31 31 31 31 32 32 32 32 32 32 32 32 32 32 32 32 31 31 31 32 31 31 31 31 31 31 31 31 31 31
8 8 7 8 9 10 9 10 11 11 12 12 12 12 14 14 12 10 9 10 10 11 11 11 12 14 15 16 19 22 24 25 26 26 27 27 27 28 28 28 28 29 29 30 30 30 30 30 30 30 31 31 31 31 31 31 31 31 31 31 32 32 32 32 32 32 32 32 32 32 32 32 31 31 31 32 32 32 32 32 32 32 31 31 31 32
8 8 8 7 8 9 9 10 10 11 11 12 13 14 15 13 11 10 9 9 10 10 11 12 13 13 13 13 16 19 23 24 25 26 26 27 27 28 28 28 29 29 30 30 30 30 30 30 30 30 30 31 31 31 31 31 31 31 31 31 32 32 32 32 32 32 32 32 32 32 32 31 31 31 31 31 31 31 32 32 31 31 31 31 31 31
8 8 8 7 8 8 9 10 10 10 10 11 12 12 12 10 9 9 9 10 10 11 11 12 13 13 12 11 13 17 22 24 25 26 27 27 27 28 28 29 29 29 30 30 30 30 30 30 30 30 30 31 31 31 31 31 31 31 31 31 31 32 32 32 32 32 31 31 31 31 31 31 31 31 31 31 31 31 31 31 31 31 31 31 31 31
8 8 8 7 7 7 8 9 9 9 10 9 10 10 9 9 8 8 9 9 10 10 10 10 11 12 12 12 14 17 21 23 25 26 26 27 28 28 28 29 29 29 30 30 30 30 30 30 30 30 30 31 31 31 31 31 31 31 31 31 31 31 31 31 31 31 31 31 31 31 31 31 31 31 31 31 31 31 31 31 31 31 31 31 32 32
8 7 7 8 8 7 7 8 9 9 9 8 8 7 7 8 8 9 10 10 10 10 10 10 10 11 11 12 14 17 19 21 23 24 25 26 27 27 28 28 29 29 30 30 30 30 30 30 30 30 30 30 31 31 31 31 31 31 31 31 31 31 31 31 31 31 31 31 31 31 31 31 31 31 31 31 31 31 31 31 31 31 32 32 32 32
9 8 8 8 8 8 7 7 8 8 8 7 7 7 8 8 8 9 9 10 10 10 9 9 9 10 10 11 13 14 14 16 17 19 21 22 23 24 26 27 28 29 30 30 30 30 30 30 30 30 30 30 30 30 30 30 30 30 30 30 30 30 30 31 31 31 31 31 31 31 30 30 30 30 30 30 30 30 30 31 31 31 31 32 32 32
10 10 9 8 8 9 9 7 7 6 7 7 7 8 9 9 9 8 8 9 9 9 9 9 9 9 9 10 11 12 13 14 14 15 16 17 18 19 22 24 26 27 28 29 29 29 29 29 29 29 29 30 30 30 30 30 30 30 30 30 30 30 30 30 30 30 30 30 30 30 30 30 30 30 30 30 30 30 30 30 30 30 31 31 31 32
10 10 9 9 8 8 8 7 6 6 6 7 8 8 8 10 11 10 9 9 8 8 8 9 9 10 9 10 10 11 13 14 17 19 20 19 20 22 22 22 22 23 26 27 28 28 28 28 28 28 29 29 29 29 29 29 29 29 29 29 29 29 29 29 30 30 30 30 30 30 30 29 29 29 29 29 29 29 29 29 30 30 30 31 31 31
9 9 9 9 7 6 5 5 6 6 7 8 8 8 8 9 10 10 11 10 9 8 8 8 9 9 9 9 10 11 11 12 14 16 18 20 22 23 23 22 22 23 25 25 26 26 26 27 27 28 28 28 28 28 28 28 28 28 28 28 29 29 29 29 29 29 29 29 29 29 29 29 29 29 29 29 29 29 29 29 30 30 30 31 31 31
8 8 7 7 6 5 5 5 6 7 7 8 9 9 8 8 8 9 11 11 10 9 9 8 8 8 9 10 10 10 11 11 11 12 12 13 15 15 16 16 17 18 20 20 21 22 24 25 26 26 27 27 27 27 27 27 27 27 28 28 28 28 28 28 28 28 28 29 29 29 29 29 29 29 29 29 29 30 30 30 30 30 30 31 31 31
7 6 6 5 5 6 6 7 7 7 8 8 9 10 9 8 7 7 8 10 10 9 9 9 9 9 9 9 10 10 10 11 11 11 10 10 10 10 10 11 11 12 12 13 14 15 19 22 23 24 25 25 26 26 27 26 26 26 27 27 27 27 27 27 28 28 28 29 29 29 29 29 29 30 30 30 30 30 30 30 30 30 30 31 31 31
7 6 6 6 6 7 7 8 9 9 9 8 9 9 9 8 8 8 8 9 9 9 9 10 10 9 8 9 9 9 10 10 10 10 10 9 9 9 9 10 10 10 10 11 11 12 15 17 17 18 21 22 23 24 24 24 25 26 26 27 27 27 28 28 28 28 29 29 29 30 30 30 30 30 30 30 30 30 30 30 30 30 30 31 31 31
7 7 7 7 7 8 8 9 9 10 9 9 8 9 9 8 8 8 8 9 9 9 9 10 10 10 8 8 8 8 9 9 9 10 10 10 9 9 9 10 11 11 10 11 11 12 15 14 13 14 16 18 20 21 22 23 25 26 26 27 28 28 28 29 29 29 29 30 30 30 30 30 30 30 30 30 30 31 31 31 31 31 31 31 31 31
7 7 8 8 9 9 8 9 9 9 9 9 8 8 8 8 8 8 8 9 9 8 8 9 10 10 8 7 7 7 8 8 9 10 11 11 10 9 9 10 11 11 11 11 11 12 12 12 12 13 14 17 21 23 25 25 26 27 27 28 28 29 29 29 29 30 30 30 30 30 30 30 30 30 31 31 31 31 31 31 31 31 31 31 31 32
7 8 8 9 9 9 9 9 9 9 9 8 8 8 8 8 8 8 8 8 8 7 7 8 9 9 7 6 6 6 7 8 8 9 11 11 11 10 9 10 11 12 12 12 11 11 11 11 11 12 12 17 21 24 26 27 27 28 28 29 29 29 29 29 29 30 30 30 30 30 30 30 31 31 31 31 31 31 31 31 31 31 31 32 32 32
7 8 8 9 9 9 9 9 8 8 8 8 8 8 8 8 8 8 8 8 8 8 8 8 7 7 7 6 6 5 7 8 9 10 11 12 11 10 10 10 11 12 12 12 11 11 11 11 11 12 14 20 24 26 27 28 28 28 29 29 29 29 29 29 30 30 30 30 30 31 31 31 31 31 31 31 31 31 31 31 31 32 32 32 32 32
8 8 8 9 9 9 8 8 8 8 8 8 8 8 9 9 9 9 9 9 9 9 9 8 8 7 7 8 8 8 8 8 9 10 11 12 11 11 10 10 11 12 12 12 11 11 10 11 12 15 19 23 26 27 28 28 28 29 29 29 29 29 30 30 30 30 30 31 31 31 31 31 31 31 31 31 31 31 31 31 31 32 32 32 32 32
10 9 8 9 9 9 9 8 8 8 9 9 9 9 9 9 9 9 9 9 8 8 7 8 8 8 8 9 10 10 9 9 9 10 11 12 12 11 10 10 11 12 12 11 10 10 10 10 12 15 20 22 25 26 27 28 28 29 29 30 30 30 30 30 30 30 31 31 31 31 31 31 31 31 31 31 31 31 31 31 31 31 32 32 32 32
10 10 9 8 9 9 8 8 9 10 10 10 9 9 9 9 9 10 9 9 8 8 7 7 8 8 8 10 11 11 10 9 9 9 9 9 10 10 9 9 10 11 12 11 10 10 10 11 11 12 15 20 24 26 27 28 29 29 30 30 30 30 30 30 30 30 30 30 30 30 30 30 30 30 30 30 31 31 31 31 31 31 31 32 32 32
10 10 10 11 10 9 9 10 11 12 11 10 9 8 8 9 9 9 9 8 7 8 8 9 9 10 10 11 12 11 10 9 8 8 7 9 10 10 8 9 10 11 12 11 10 10 10 10 10 12 16 21 25 27 29 29 29 30 30 30 30 30 30 30 30 30 30 30 30 30 29 29 30 30 30 30 30 31 31 31 31 31 31 31 32 32
10 10 11 11 10 10 10 10 10 11 11 10 9 9 8 8 8 8 7 7 8 8 9 10 10 11 11 11 11 11 10 9 8 7 6 9 10 10 8 8 9 10 11 10 10 10 10 10 11 12 16 22 25 27 29 29 29 30 30 30 30 30 30 30 29 29 29 29 29 29 29 29 29 30 30 30 30 31 31 31 31 31 31 31 31 31
10 11 11 10 9 9 9 9 9 9 9 9 8 8 7 7 8 7 7 8 9 9 9 10 10 11 10 11 11 10 9 8 7 6 6 8 9 10 8 8 9 11 11 10 10 10 11 11 11 12 13 20 24 26 28 29 29 29 29 29 29 29 29 29 29 29 29 29 29 29 29 29 30 30 30 30 31 31 31 31 31 31 31 31 31 31
10 10 10 10 11 12 13 13 13 12 11 9 8 8 8 9 10 10 10 10 9 9 9 9 10 10 10 10 10 9 8 8 7 6 6 6 8 9 9 8 9 10 11 10 10 10 11 11 12 12 12 16 21 24 27 28 28 28 28 28 28 28 28 28 28 28 29 29 29 29 29 30 30 30 30 30 31 31 31 31 31 31 31 31 31 31
14 14 15 17 20 23 24 24 23 21 20 16 13 10 10 10 10 10 10 9 9 8 8 9 10 10 9 9 8 8 7 7 7 6 6 6 8 9 8 8 9 10 11 10 10 10 11 12 12 12 12 13 17 21 24 26 26 27 27 27 27 28 28 28 28 28 29 29 29 29 30 30 30 30 30 30 30 30 31 31 31 31 31 31 31 30
21 23 25 26 27 27 26 26 26 26 26 23 20 16 12 10 9 9 9 8 8 8 8 9 9 10 9 9 8 8 8 7 6 6 6 7 8 8 8 7 8 9 11 10 10 10 12 12 12 12 12 12 13 16 21 23 24 25 26 27 27 27 28 28 28 28 29 29 29 29 29 29 30 30 30 30 30 30 30 31 31 31 31 29 27 25
23 24 24 24 24 23 23 23 23 23 24 24 23 21 16 11 9 9 9 8 7 8 8 9 9 9 9 9 9 9 9 8 7 7 7 6 7 7 8 8 8 9 10 10 10 10 12 11 11 11 11 11 11 13 16 20 22 23 25 26 27 27 27 27 28 28 28 28 28 28 28 29 29 29 29 30 30 30 30 30 31 30 28 24 18 15
20 20 20 20 20 20 20 20 20 21 22 22 22 19 14 9 8 8 9 8 7 8 9 9 9 9 9 9 9 10 10 9 8 7 7 6 6 7 7 8 8 8 8 8 9 9 9 9 9 9 10 11 11 11 12 15 17 19 21 23 25 25 26 26 26 27 27 27 27 27 28 28 28 29 29 29 29 30 30 31 30 27 22 17 14 12
14 14 15 15 16 16 16 16 16 17 19 20 19 17 13 9 7 7 8 7 7 8 9 9 9 9 8 9 9 9 9 8 7 6 6 5 6 6 7 8 8 8 7 7 7 8 7 7 7 7 9 11 11 11 10 11 12 13 14 17 19 21 23 24 25 25 26 26 27 27 27 28 28 28 28 29 29 29 30 31 28 23 15 12 11 10
11 11 11 12 12 12 12 11 12 13 14 15 15 14 11 8 7 7 7 7 7 8 8 9 9 9 8 7 7 7 7 7 6 6 6 5 5 6 8 8 8 8 7 6 6 7 8 7 6 7 8 10 10 11 11 11 11 11 11 12 13 15 19 21 23 23 24 25 25 26 27 27 27 28 28 28 29 29 30 30 28 22 14 12 11 11
11 10 10 10 10 9 9 9 9 9 10 10 10 10 9 8 8 7 7 7 7 7 8 8 9 9 9 8 8 8 7 8 8 8 7 6 5 6 7 8 8 8 7 6 6 7 8 7 7 7 8 9 10 10 11 11 10 10 10 11 11 13 16 18 19 19 19 21 23 24 25 26 27 27 27 28 28 29 29 30 27 22 15 12 11 11
10 10 9 9 9 9 8 8 8 8 8 8 8 8 8 8 8 8 7 7 7 7 7 8 9 9 9 9 10 9 9 9 10 10 10 7 6 6 7 8 9 9 8 8 7 7 7 8 8 9 9 9 9 9 10 10 10 10 10 10 10 11 14 14 14 15 15 17 18 20 22 23 24 25 26 27 27 28 28 29 27 24 19 14 12 12
10 10 10 9 9 9 8 8 8 8 8 8 8 8 7 7 8 8 8 7 7 7 7 8 8 9 9 9 10 10 11 11 11 12 10 7 6 6 7 9 9 9 9 8 8 8 8 9 10 10 9 9 9 9 9 10 10 10 10 10 10 10 11 11 11 12 13 13 13 14 16 17 19 21 22 23 24 25 26 27 27 27 25 19 15 13
9 10 9 9 9 9 9 9 8 8 8 8 8 8 8 7 7 7 7 7 7 7 7 7 8 8 9 9 10 11 12 12 12 12 11 8 7 6 8 8 9 9 9 8 8 7 7 10 11 11 10 10 10 9 8 9 9 9 9 9 9 10 10 10 10 11 12 12 12 12 12 12 13 14 16 19 21 23 25 27 28 29 29 26 22 18
9 9 9 9 9 9 9 9 9 8 8 8 7 7 8 8 8 7 7 8 8 8 9 9 9 9 9 10 10 12 13 12 13 13 12 10 8 7 7 8 9 9 9 9 9 8 8 10 11 12 12 12 11 9 8 8 9 9 9 10 10 10 10 10 10 11 11 11 11 11 11 11 11 12 13 18 21 24 26 27 28 29 29 29 27 24
9 9 9 8 8 8 9 8 8 8 8 8 8 8 8 8 8 8 8 8 8 9 10 10 11 11 12 11 11 12 13 13 13 14 14 12 10 8 8 9 9 10 10 10 9 9 9 10 11 11 11 11 10 9 9 9 9 9 10 10 10 10 11 11 11 11 11 12 12 12 12 12 12 13 14 18 21 23 24 26 26 26 27 27 28 27
8 9 8 8 8 8 8 8 8 8 8 8 8 8 9 9 9 10 10 10 10 10 10 10 11 12 15 15 15 15 15 16 16 17 17 14 11 10 9 10 10 10 10 10 9 9 9 10 11 11 10 10 10 11 11 11 11 11 11 11 10 10 11 11 11 11 11 12 13 13 13 13 13 12 13 14 14 14 15 16 17 19 22 22 24 26
8 8 9 8 8 8 8 8 8 8 8 8 8 9 9 10 10 11 10 10 10 11 11 11 11 11 13 15 16 17 17 17 17 17 17 14 12 11 10 10 11 11 10 10 9 9 9 10 10 10 10 10 11 11 11 11 11 12 12 11 11 11 10 10 10 11 11 12 13 14 13 13 12 11 11 11 11 11 12 12 13 14 15 15 16 19
9 9 9 9 8 8 8 8 8 8 8 9 9 10 10 9 10 10 10 10 10 11 12 12 11 11 12 13 14 15 15 14 13 13 13 12 11 10 10 10 11 11 10 10 9 9 10 10 11 11 11 11 11 11 11 10 11 12 13 11 10 9 10 10 10 11 11 11 12 12 12 11 11 11 11 11 11 11 11 11 11 12 13 12 12 12
9 9 9 8 8 9 9 9 9 9 9 9 9 9 8 8 8 8 9 9 10 10 10 10 10 10 11 11 12 13 13 13 13 13 11 12 12 12 11 10 10 10 10 10 10 10 10 11 11 12 11 11 12 12 12 12 13 14 15 13 11 11 11 12 12 11 11 11 11 12 12 12 12 12 12 12 11 11 10 11 12 12 13 11 10 10
10 9 9 8 8 8 8 9 9 10 10 9 9 8 8 8 8 8 8 9 9 9 9 9 9 10 11 11 11 11 11 11 12 12 12 13 13 12 11 11 10 10 10 10 10 10 11 11 11 12 11 11 11 11 12 12 13 13 13 13 13 13 13 12 11 10 11 11 11 11 13 12 12 12 12 12 11 11 11 11 13 14 14 12 10 10
9 9 9 9 9 9 10 10 10 9 9 8 8 8 8 7 7 8 9 9 9 10 9 9 9 10 10 11 11 11 10 9 10 11 11 11 11 12 11 11 11 10 9 9 10 11 11 12 12 11 11 11 11 12 13 13 13 13 13 13 13 12 9 9 9 10 10 11 11 11 11 11 11 11 11 11 11 10 10 12 14 15 14 12 11 10
8 8 8 8 9 9 9 9 9 8 8 9 9 8 8 8 8 9 9 9 9 10 9 9 9 9 10 11 11 11 10 9 9 10 10 11 11 11 11 11 11 11 10 9 9 10 11 11 11 11 11 11 11 11 12 12 12 12 12 13 13 12 10 10 11 11 11 11 11 10 10 10 11 11 11 11 11 10 10 10 10 11 12 11 10 10
8 8 8 8 8 9 9 9 9 9 9 9 9 9 9 9 9 9 8 9 9 10 9 9 8 8 9 10 10 10 10 10 10 9 9 10 12 13 12 11 10 10 10 10 9 10 10 10 11 11 10 10 11 11 12 13 13 13 13 13 13 13 13 12 12 12 12 11 11 11 11 11 11 12 12 12 11 11 10 10 11 11 11 10 10 9
7 8 8 8 8 9 9 9 9 9 9 9 9 9 9 9 8 8 9 9 9 9 9 9 8 8 9 10 10 9 9 9 10 9 9 9 9 9 10 10 10 9 9 9 10 10 10 11 11 11 11 11 11 12 12 12 13 12 12 12 12 12 12 12 12 12 12 12 12 12 12 12 12 12 12 12 12 12 11 11 11 11 11 10 10 9
8 8 8 8 8 9 9 9 9 9 9 10 9 9 9 8 8 8 9 9 9 9 9 9 9 9 10 10 10 10 10 10 10 10 9 9 9 9 9 9 10 10 9 9 10 11 11 11 11 11 11 11 11 12 12 12 12 12 12 12 12 12 12 11 11 11 11 11 11 12 12 12 12 12 12 12 12 12 12 11 11 11 10 10 9 9
8 9 9 9 9 9 9 9 9 9 10 10 10 9 9 9 10 10 9 9 9 9 9 9 9 10 10 10 10 10 10 11 11 11 10 10 9 9 9 9 9 9 10 10 11 12 12 12 12 12 11 11 11 12 12 12 12 12 12 12 11 11 11 11 11 10 10 10 11 12 11 10 11 12 13 13 12 12 12 12 11 10 9 9 9 9
8 9 9 9 9 9 9 9 9 9 10 10 10 10 9 10 11 12 10 9 9 9 9 9 10 10 10 10 10 11 11 11 11 11 10 10 9 9 9 9 9 9 9 10 10 10 10 11 12 12 11 11 11 12 12 12 11 11 11 11 10 10 11 11 11 10 10 11 12 12 12 11 10 11 11 12 12 13 13 13 12 11 9 9 8 9
9 9 9 9 9 9 9 9 9 10 10 10 11 10 10 10 10 10 9 9 9 9 9 9 10 10 10 11 11 11 11 11 11 10 10 9 9 9 9 9 9 9 10 9 8 8 8 7 8 9 11 11 11 11 11 11 11 10 10 10 10 10 11 11 11 11 11 12 12 12 13 12 11 10 9 11 12 13 14 13 12 11 10 9 9 9
9 9 9 9 9 9 9 9 10 10 10 11 11 11 10 10 10 9 9 9 9 9 9 9 10 10 11 11 11 11 11 11 11 11 10 9 9 9 9 9 9 10 10 9 8 7 7 6 6 7 8 10 11 10 8 9 10 10 10 10 10 9 10 11 11 11 12 12 12 12 12 11 10 9 8 9 11 12 13 13 13 12 11 10 10 11
Wind_Direction
302 307 310 313 311 308 305 306 305 303 301 301 301 300 301 300 299 298 298 298 297 296 294 293 292 293 293 294 294 294 293 293 292 292 291 292 292 292 292 292 292 292 292 292 291 291 290 290 290 290 289 289 289 288 288 288 287 287 286 286 286 285 285 284 284 284 283 283 282 282 282 281 281 281 280 280 279 279 278 278 277 277 276 275 275 274
303 305 307 310 308 305 301 303 302 300 300 301 301 301 300 299 298 297 295 294 293 293 293 293 293 293 293 293 293 293 292 292 292 292 292 292 293 293 293 293 293 293 292 292 291 291 291 290 290 290 289 289 288 288 287 287 286 286 285 285 285 284 284 284 283 283 283 282 282 281 281 281 280 280 279 279 278 278 277 276 276 275 275 274 274 273
306 304 304 306 305 302 300 301 300 299 298 299 299 299 298 297 295 294 293 293 293 293 293 294 294 293 293 291 291 291 292 292 293 293 293 293 294 294 294 294 294 293 293 292 292 291 290 290 290 289 289 288 287 287 286 286 285 285 284 284 284 284 283 283 283 282 282 282 281 281 280 280 279 279 278 277 277 276 275 275 274 274 274 274 274 273
304 302 304 304 300 298 297 299 300 299 297 295 295 295 294 293 292 292 293 294 295 294 293 293 293 292 291 290 290 291 292 293 294 294 295 295 295 296 296 295 295 294 293 292 291 291 290 289 289 288 288 287 287 286 286 285 285 284 284 284 284 283 283 283 283 282 282 282 281 281 280 280 279 278 278 277 276 276 275 275 274 274 274 274 274 274
299 299 302 301 298 296 296 297 297 296 294 292 291 291 291 290 291 293 294 295 294 293 293 292 292 291 291 290 291 292 294 295 296 297 297 297 297 297 297 296 295 294 292 291 291 290 289 289 288 288 287 287 286 286 286 285 285 285 284 284 284 284 284 283 283 283 283 283 282 282 281 281 280 279 279 278 278 277 277 277 277 277 276 276 276 276
298 298 301 299 298 297 298 296 294 292 291 289 288 289 291 293 293 293 293 293 292 292 293 293 292 292 291 292 293 295 297 298 299 299 299 299 298 297 296 295 294 293 291 291 290 289 289 288 288 287 287 287 286 286 286 286 285 285 285 285 285 285 285 285 285 285 284 284 284 283 282 282 281 281 280 280 280 279 279 279 278 278 278 277 276 276
298 297 298 296 294 292 291 290 290 290 290 291 291 292 292 292 291 291 291 292 293 293 294 293 293 293 293 294 297 299 301 301 301 301 300 299 297 296 295 294 293 291 291 290 289 289 288 288 288 287 287 287 286 286 286 286 286 286 286 286 286 286 286 286 286 286 286 285 285 284 283 283 282 282 281 281 280 280 279 279 278 278 277 276 276 275
298 296 294 292 291 289 285 284 286 289 293 296 297 297 294 290 288 289 292 294 295 296 295 295 294 294 296 299 301 303 303 302 301 300 299 297 296 294 293 292 291 290 290 289 289 288 288 288 288 287 287 287 287 287 287 287 287 287 287 287 287 288 287 287 287 287 286 286 285 285 284 284 283 282 282 281 280 280 279 278 278 277 276 275 275 274
293 293 291 288 287 288 289 288 290 294 296 296 295 295 296 295 295 294 296 296 297 297 297 298 297 297 298 301 303 304 303 300 298 296 295 294 293 292 292 291 290 289 289 289 289 289 288 288 288 288 288 288 288 288 288 288 288 288 288 288 288 288 288 287 287 287 286 286 286 285 285 284 284 283 282 281 280 280 279 278 277 277 276 275 275 274
286 286 287 285 284 285 290 295 298 297 290 286 286 290 295 300 302 302 300 299 298 298 298 298 299 300 301 302 302 302 300 296 294 292 291 291 291 290 290 290 290 289 289 289 290 290 290 290 290 290 290 290 289 289 289 289 289 289 289 288 288 288 287 287 287 287 286 286 286 286 285 285 284 284 283 282 281 280 279 278 277 276 276 275 274 274
285 285 285 287 288 288 288 290 291 289 285 285 287 290 295 300 303 303 302 301 300 299 298 299 300 301 303 303 301 299 297 294 292 291 290 290 290 290 291 291 290 290 291 291 292 292 292 292 292 291 291 290 290 290 290 289 289 289 288 288 287 287 287 287 286 286 286 286 286 286 285 285 284 284 283 282 281 280 279 278 277 276 275 274 273 273
288 288 288 290 292 292 288 285 286 288 293 296 298 298 298 299 299 299 299 300 301 301 301 300 300 299 300 301 300 297 294 291 290 289 290 290 291 291 292 292 292 292 293 293 293 293 293 292 292 292 291 291 290 290 289 289 288 288 287 287 287 287 287 287 286 286 286 286 285 285 285 284 284 283 282 281 280 279 278 277 276 275 274 273 272 272
286 286 286 287 290 292 295 297 299 301 303 302 301 301 301 301 299 296 295 297 299 302 303 302 299 297 296 295 294 292 290 288 288 288 290 291 293 294 295 294 293 293 293 293 293 292 293 292 292 291 291 290 290 289 288 288 288 288 287 287 287 287 287 287 286 286 286 285 285 285 284 284 283 282 282 281 280 279 278 277 276 275 275 274 273 272
287 287 287 290 293 298 302 303 303 302 301 300 298 298 299 300 299 297 295 296 299 302 303 300 297 295 293 290 288 286 286 287 288 289 290 291 293 295 296 294 293 293 294 293 292 292 292 293 292 291 290 289 288 288 287 287 288 288 288 288 288 288 287 287 287 286 286 286 285 285 284 284 283 282 282 281 280 279 279 278 277 276 275 274 273 273
290 294 296 298 300 302 302 301 300 298 297 297 297 297 298 298 298 298 298 299 300 302 301 296 293 291 287 286 285 285 286 288 291 292 293 292 293 295 297 296 294 294 293 293 292 291 291 290 288 287 286 286 286 287 287 288 288 289 289 289 288 288 288 288 288 287 287 286 285 284 284 283 283 282 281 281 280 279 278 277 276 275 274 274 273 272
295 299 300 300 300 299 299 298 297 296 297 297 297 297 298 298 298 299 299 299 300 300 298 295 293 290 285 282 283 286 291 293 294 294 295 294 295 297 299 297 295 293 291 290 289 288 288 286 284 284 285 286 287 288 288 288 289 289 289 289 289 289 289 288 287 287 286 285 284 284 283 283 282 281 281 280 280 279 278 277 276 275 274 273 272 271
298 299 298 297 296 296 296 295 294 294 296 297 297 297 297 298 299 300 298 297 296 295 292 292 292 292 291 288 287 289 296 298 297 296 296 295 296 297 299 296 293 290 289 287 287 287 288 286 285 285 285 285 287 288 289 290 290 290 290 290 289 289 288 288 287 287 286 285 285 284 284 283 282 282 281 280 279 279 278 277 276 275 274 273 272 271
297 297 295 293 293 294 295 294 293 293 294 295 296 297 296 297 297 296 294 292 290 288 287 286 285 286 291 294 296 299 306 304 301 299 296 294 294 295 296 292 289 287 287 286 286 286 286 285 284 283 284 287 288 289 290 291 290 290 290 289 289 289 288 288 288 288 287 287 286 285 285 284 283 282 281 280 279 278 277 276 275 274 274 273 272 270
293 291 290 290 290 291 292 292 292 294 294 295 297 297 296 295 293 291 289 286 284 282 281 281 281 282 287 291 296 302 310 306 302 298 294 292 292 292 293 289 286 284 284 284 285 285 285 284 284 285 287 288 289 290 290 290 290 290 290 289 289 289 289 289 289 288 288 287 287 286 285 285 284 283 282 281 280 279 278 277 275 274 273 272 271 271
288 287 286 288 290 291 289 288 289 291 293 295 296 295 294 292 290 287 284 282 279 277 276 279 283 288 292 294 297 301 307 305 300 293 289 288 288 289 291 288 286 284 284 284 286 287 288 287 287 287 288 289 290 290 290 290 290 290 290 290 290 289 289 289 288 288 288 287 287 286 286 285 285 284 284 283 282 280 279 277 276 275 273 272 271 270
287 286 285 287 289 290 288 288 289 290 292 294 294 292 289 288 285 283 281 281 281 282 285 288 291 294 298 296 296 298 303 300 294 288 285 284 284 285 289 288 287 286 285 286 287 288 288 287 287 287 289 290 291 291 291 291 291 291 290 290 290 289 289 289 288 288 287 287 287 286 286 286 285 285 284 283 282 281 280 279 277 276 274 273 271 270
288 288 288 288 288 287 287 289 290 291 292 291 289 286 284 283 282 282 283 287 291 295 297 296 296 296 296 292 291 292 295 290 284 281 283 282 282 283 287 287 286 285 285 287 289 289 289 288 288 289 290 291 291 292 292 291 291 291 290 290 290 290 289 289 289 288 287 287 286 286 285 285 284 284 283 283 282 282 281 280 279 278 276 275 273 272
286 287 288 287 286 286 287 288 289 289 288 285 282 279 278 279 282 286 294 299 301 300 299 296 294 292 289 287 286 286 285 280 277 276 278 280 282 285 289 289 287 286 284 288 291 293 292 291 290 291 291 291 292 292 292 291 291 291 291 290 290 290 289 289 288 287 287 286 286 285 285 284 283 283 283 282 282 281 281 280 280 279 278 277 276 274
283 283 285 285 285 284 284 284 284 283 282 278 275 274 275 280 286 292 298 300 299 297 296 294 292 289 285 284 283 283 281 279 278 277 277 279 282 287 291 291 289 287 286 289 293 296 295 293 291 291 291 291 291 291 291 291 291 291 291 290 290 289 288 288 288 287 287 287 287 286 286 285 284 284 283 282 282 281 280 279 279 278 277 277 276 275
282 283 283 283 282 281 280 280 281 282 283 281 282 285 290 294 297 298 298 297 295 294 293 292 290 288 287 287 286 285 285 285 284 282 279 280 282 285 288 290 290 289 289 292 294 295 295 293 292 291 291 291 291 291 291 291 290 290 290 289 289 289 288 289 289 289 289 288 288 287 286 286 285 284 283 283 282 281 280 280 278 277 277 276 275 275
286 285 285 284 284 284 284 285 287 289 291 292 294 298 301 302 301 299 295 293 293 293 292 290 288 287 288 289 289 288 288 287 285 282 281 282 284 286 288 289 289 289 290 292 294 295 295 293 293 293 292 290 290 290 290 289 290 290 289 290 290 290 291 291 291 290 290 289 288 287 286 285 284 283 283 283 282 282 281 280 280 279 278 277 276 275
289 288 287 286 287 288 290 291 293 294 296 297 298 300 301 301 299 295 290 290 292 293 291 289 288 288 289 288 287 287 289 289 287 285 284 283 284 285 287 289 290 291 292 294 295 296 295 293 293 293 291 289 288 288 289 290 291 292 292 293 293 293 293 292 291 290 289 288 287 286 285 284 283 283 282 282 282 282 282 282 281 281 280 280 278 276
289 288 287 288 290 292 294 296 297 298 299 299 299 299 299 297 293 289 287 290 292 291 286 285 286 288 289 288 288 289 291 289 288 287 285 282 281 282 287 293 295 296 296 296 295 293 291 289 289 289 288 288 287 288 290 293 295 295 295 295 294 293 292 291 290 289 288 287 286 286 285 284 283 283 283 283 283 283 283 283 283 283 283 282 281 278
288 288 289 291 294 297 300 300 300 300 299 298 298 297 295 290 285 282 284 288 289 286 282 282 283 285 287 289 290 290 288 285 285 285 287 284 282 283 291 295 297 298 299 298 295 291 286 284 284 286 288 290 292 294 295 297 297 296 295 294 293 292 291 291 290 290 289 288 287 287 286 285 284 284 283 284 284 284 284 284 284 285 284 283 280 276
292 294 296 299 301 302 303 301 300 298 297 296 295 293 290 284 278 276 280 282 282 280 280 281 282 284 287 290 291 289 284 281 284 290 297 293 288 288 294 296 297 298 302 301 299 295 289 284 284 287 291 295 296 296 296 297 296 294 293 293 292 292 291 291 291 291 291 290 289 288 288 287 286 286 285 285 285 285 285 285 285 285 284 281 277 272
302 304 305 305 304 303 301 298 295 294 293 293 292 290 287 281 275 273 273 274 273 274 276 279 281 283 285 288 289 287 284 285 293 303 309 298 289 289 294 294 294 294 298 299 300 300 299 296 293 292 294 296 295 295 294 294 293 293 292 292 292 291 291 292 292 292 292 292 291 291 290 289 289 288 287 286 286 285 285 285 285 285 283 279 275 271
307 307 304 303 302 300 297 294 292 291 290 289 288 286 283 280 277 274 272 270 269 270 273 276 279 280 280 279 279 279 281 287 295 301 302 293 287 286 290 290 291 292 293 291 290 292 297 300 301 301 299 295 294 292 292 292 292 292 292 292 290 290 291 292 293 293 293 293 293 293 292 290 290 289 287 287 286 285 284 284 284 283 281 277 274 271
305 303 301 300 298 296 293 291 290 289 288 287 286 285 284 281 279 276 273 270 268 268 270 273 276 278 277 275 274 274 276 281 288 293 294 290 286 286 289 289 290 291 292 288 284 282 284 290 297 300 299 294 292 292 292 292 291 290 289 289 289 290 292 294 294 294 294 294 293 292 291 290 289 288 287 286 285 284 284 283 283 282 280 278 275 272
301 299 298 296 295 293 291 290 289 289 288 288 288 287 286 284 281 279 276 273 270 267 266 269 271 274 277 277 276 275 276 278 283 289 293 290 287 286 289 289 289 290 292 288 285 282 280 284 290 295 297 295 293 291 291 291 290 289 287 287 288 290 293 295 295 294 293 292 291 290 290 289 287 286 285 285 284 283 283 283 283 283 283 281 279 277
298 297 296 295 294 293 293 292 291 290 290 290 290 289 288 286 284 281 279 276 273 270 266 264 265 267 270 273 275 276 277 280 284 289 291 287 284 284 286 285 287 288 289 287 287 286 284 285 288 291 295 296 294 291 289 289 289 289 288 287 288 290 291 293 292 292 292 291 289 287 287 286 285 284 283 283 283 283 283 284 284 285 285 284 283 281
296 295 295 295 294 294 295 294 294 294 293 292 292 290 289 288 286 284 282 279 276 274 271 267 264 262 262 264 267 271 275 279 283 286 285 282 280 280 281 281 283 285 285 285 284 284 284 285 287 289 290 292 293 293 292 291 291 291 290 290 289 289 289 289 290 290 290 289 288 286 285 285 284 282 281 282 283 283 284 284 285 285 285 285 284 282
294 294 294 295 295 295 295 295 296 296 295 294 293 292 290 289 289 287 285 281 278 276 274 271 267 263 260 259 260 263 268 274 278 279 279 277 275 274 274 276 279 280 280 281 282 283 283 285 286 287 287 287 289 293 297 299 297 294 291 291 291 290 289 289 288 288 287 286 285 285 285 285 284 283 282 283 283 284 284 284 284 285 285 284 284 283
294 294 294 295 295 295 295 295 296 295 295 294 293 292 291 290 289 288 286 283 279 275 273 271 269 266 263 261 260 261 264 268 271 273 273 272 270 269 269 273 275 275 273 274 277 279 281 283 285 287 286 284 284 287 292 297 297 295 292 291 290 289 288 288 287 286 285 284 285 285 285 285 284 283 282 282 282 282 282 282 283 283 284 284 284 283
295 294 295 295 295 295 295 295 295 295 294 294 293 292 291 290 288 287 285 283 280 277 275 273 272 270 267 265 263 263 264 265 267 268 269 268 267 266 267 270 272 273 272 271 272 273 275 276 279 281 284 286 286 287 288 290 291 292 293 293 290 286 285 287 287 287 286 286 286 286 285 283 282 280 280 280 281 281 282 283 284 285 286 286 285 283
295 294 294 295 296 296 295 295 295 295 295 293 292 291 290 289 288 287 285 284 282 281 280 278 277 275 273 272 270 269 269 268 268 268 268 265 263 262 263 266 269 272 272 270 269 268 268 270 273 275 277 281 284 287 288 287 287 289 293 294 292 290 290 290 290 288 286 284 282 282 282 281 280 280 280 281 282 282 282 283 284 285 285 285 285 284
296 295 296 297 298 297 296 296 296 296 295 294 292 291 289 289 289 289 288 287 285 285 284 284 282 280 279 277 276 276 275 274 273 271 269 265 262 260 260 261 264 267 270 269 268 266 266 269 271 273 274 276 279 282 283 283 286 288 291 290 290 290 292 291 289 286 284 280 279 279 281 283 284 284 284 283 281 279 278 279 281 282 283 280 278 278
295 296 297 299 299 299 299 298 297 296 295 293 291 289 288 288 289 289 290 290 290 289 289 289 288 287 286 283 281 279 277 275 272 270 269 266 263 260 259 259 260 263 266 267 267 267 266 268 270 272 273 275 278 280 282 283 284 286 288 288 290 292 292 287 284 282 282 282 282 283 284 285 286 285 285 284 282 280 278 276 276 277 279 277 274 271
294 294 296 297 298 298 299 298 298 296 295 292 290 288 288 288 288 289 289 289 289 290 290 289 289 288 288 288 287 286 283 278 275 274 273 270 267 264 262 260 259 260 261 264 267 268 268 267 268 269 271 274 276 278 281 284 286 286 286 287 289 292 292 289 287 286 284 284 284 284 284 285 285 285 285 285 284 283 280 278 276 274 273 272 271 268
292 293 295 296 297 298 298 298 297 296 295 293 291 290 290 289 288 288 287 286 287 288 289 288 287 286 284 285 287 290 291 289 286 282 279 276 273 271 269 266 263 261 258 260 264 269 272 271 270 270 272 274 276 277 279 282 284 285 284 284 284 283 281 285 289 290 287 284 282 283 284 286 287 288 287 286 285 284 282 280 277 274 272 270 269 267
292 294 295 296 298 298 298 297 297 296 295 293 292 291 291 291 289 288 286 287 287 287 287 288 288 286 284 284 287 290 293 294 293 291 286 282 280 279 278 275 272 268 262 260 261 264 269 272 274 275 276 275 274 274 277 280 282 283 282 282 280 278 276 279 282 284 285 286 286 288 289 291 291 291 290 289 288 287 286 285 283 281 278 275 271 269
294 295 296 297 297 297 296 296 297 296 295 293 292 291 292 292 291 289 287 287 287 287 287 287 286 285 284 287 289 291 293 294 294 295 294 292 289 287 284 280 277 274 269 265 262 261 262 266 271 276 279 277 275 273 273 277 280 281 282 282 281 280 279 279 280 282 284 287 289 290 292 294 294 292 291 291 291 291 289 287 285 283 282 280 277 273
297 297 297 297 296 296 295 296 296 295 294 293 293 294 295 295 294 292 289 288 288 288 288 287 285 282 282 285 288 290 291 293 294 295 296 296 295 292 289 285 281 277 273 270 267 264 262 263 266 270 274 276 277 276 275 275 277 279 281 282 282 282 281 282 282 283 284 286 288 292 296 297 295 293 291 291 292 292 291 288 285 283 282 281 280 278
299 298 298 297 297 296 296 296 296 295 295 295 295 296 297 297 297 296 293 292 290 289 289 288 285 283 282 284 285 287 288 290 292 294 295 296 296 294 293 290 287 283 278 275 273 270 268 265 263 263 265 268 272 274 276 276 276 277 279 282 283 283 283 284 286 287 288 288 290 292 295 295 294 293 293 293 293 293 293 292 290 287 284 282 282 281
299 298 298 298 297 296 296 296 296 296 296 296 297 298 298 298 297 296 293 292 290 288 287 286 285 284 284 285 286 287 288 289 290 291 293 294 295 295 295 294 292 289 286 282 278 275 272 268 262 257 254 257 263 269 274 276 276 277 279 282 284 285 287 289 291 293 294 293 292 291 291 289 289 289 291 291 292 293 295 295 294 293 290 287 284 283
298 297 297 297 296 296 295 296 296 296 296 297 297 297 297 297 296 294 292 290 288 287 285 285 285 285 286 287 288 289 290 290 290 291 292 294 296 297 296 296 295 294 292 289 286 284 282 277 267 258 251 252 257 264 272 276 279 282 283 285 288 290 292 293 294 296 297 295 294 292 290 288 286 285 286 287 290 293 296 296 296 296 295 293 291 288
298 297 296 296 295 295 295 296 296 296 295 295 295 295 295 295 295 294 292 291 289 288 286 286 285 285 286 287 288 289 290 290 291 292 293 295 297 297 296 296 296 297 296 296 296 296 295 295 289 279 267 263 264 267 274 281 286 289 290 290 292 293 293 294 295 295 296 294 292 291 289 288 287 287 287 289 291 294 296 296 297 298 299 299 297 294